TimeCST,TemperatureF,Dew PointF,Humidity,Sea Level PressureIn,VisibilityMPH,Wind Direction,Wind SpeedMPH,Gust SpeedMPH,PrecipitationIn,Events,Conditions,WindDirDegrees,DateUTC
12:35 AM,42.6,36.3,78,29.89,10.0,WNW,13.8,20.7,N/A,,Overcast,300,2013-02-19 06:35:00
1:15 AM,42.8,35.8,76,29.90,10.0,WNW,11.5,19.6,N/A,,Overcast,290,2013-02-19 07:15:00
1:35 AM,42.4,36.0,78,29.92,10.0,West,10.4,16.1,N/A,,Overcast,280,2013-02-19 07:35:00
1:55 AM,41.5,34.3,76,29.93,10.0,WNW,16.1,21.9,N/A,,Overcast,290,2013-02-19 07:55:00
2:15 AM,39.9,32.9,76,29.95,10.0,WNW,17.3,21.9,N/A,,Overcast,290,2013-02-19 08:15:00
2:35 AM,38.7,30.7,73,29.96,10.0,WNW,15.0,23.0,N/A,,Overcast,290,2013-02-19 08:35:00
2:55 AM,37.9,29.8,73,29.96,10.0,WNW,16.1,24.2,N/A,,Overcast,300,2013-02-19 08:55:00
3:35 AM,37.0,30.0,76,29.97,10.0,WNW,10.4,-,N/A,,Mostly Cloudy,290,2013-02-19 09:35:00
3:55 AM,36.7,30.0,77,29.98,10.0,NW,6.9,-,N/A,,Overcast,310,2013-02-19 09:55:00
4:15 AM,36.0,30.0,79,29.99,10.0,NW,5.8,-,N/A,,Overcast,310,2013-02-19 10:15:00
4:35 AM,34.9,26.1,70,30.00,10.0,WNW,6.9,-,N/A,,Scattered Clouds,290,2013-02-19 10:35:00
4:55 AM,34.3,25.7,71,30.01,10.0,WNW,13.8,17.3,N/A,,Clear,290,2013-02-19 10:55:00
5:15 AM,34.0,25.5,71,30.01,10.0,West,16.1,-,N/A,,Clear,280,2013-02-19 11:15:00
5:35 AM,33.8,24.8,70,30.03,10.0,WNW,9.2,18.4,N/A,,Clear,290,2013-02-19 11:35:00
5:55 AM,33.1,23.0,66,30.04,10.0,WNW,13.8,18.4,N/A,,Clear,290,2013-02-19 11:55:00
6:15 AM,32.9,24.8,72,30.05,10.0,West,10.4,-,N/A,,Clear,260,2013-02-19 12:15:00
6:35 AM,32.5,25.3,75,30.05,10.0,West,9.2,-,N/A,,Clear,270,2013-02-19 12:35:00
6:55 AM,32.4,23.0,68,30.06,10.0,West,16.1,20.7,N/A,,Clear,280,2013-02-19 12:55:00
7:15 AM,32.4,22.8,68,30.07,10.0,West,6.9,-,N/A,,Clear,280,2013-02-19 13:15:00
7:35 AM,32.9,22.8,66,30.08,10.0,West,6.9,-,N/A,,Clear,280,2013-02-19 13:35:00
7:55 AM,33.4,21.2,61,30.08,10.0,West,11.5,17.3,N/A,,Clear,280,2013-02-19 13:55:00
8:15 AM,33.8,20.5,58,30.09,10.0,WNW,12.7,18.4,N/A,,Clear,290,2013-02-19 14:15:00
8:55 AM,34.9,19.8,54,30.11,10.0,WNW,16.1,23.0,N/A,,Clear,290,2013-02-19 14:55:00
9:15 AM,35.2,20.3,55,30.11,10.0,West,15.0,20.7,N/A,,Clear,270,2013-02-19 15:15:00
9:35 AM,35.6,19.8,53,30.12,10.0,West,17.3,20.7,N/A,,Clear,280,2013-02-19 15:35:00
9:55 AM,36.7,21.4,54,30.12,10.0,West,11.5,17.3,N/A,,Clear,280,2013-02-19 15:55:00
10:15 AM,36.7,21.0,53,30.13,10.0,West,11.5,-,N/A,,Clear,260,2013-02-19 16:15:00
10:35 AM,37.0,20.3,51,30.14,10.0,West,15.0,19.6,N/A,,Clear,270,2013-02-19 16:35:00
10:55 AM,37.8,20.5,50,30.14,10.0,West,10.4,20.7,N/A,,Clear,270,2013-02-19 16:55:00
11:15 AM,38.5,20.5,48,30.14,10.0,WSW,11.5,20.7,N/A,,Clear,250,2013-02-19 17:15:00
11:35 AM,39.4,21.4,49,30.14,10.0,WSW,12.7,19.6,N/A,,Clear,250,2013-02-19 17:35:00
11:55 AM,40.3,20.8,46,30.14,10.0,West,12.7,18.4,N/A,,Clear,270,2013-02-19 17:55:00
12:15 PM,40.3,20.1,45,30.14,10.0,West,15.0,18.4,N/A,,Unknown,260,2013-02-19 18:15:00
12:35 PM,41.2,19.6,42,30.14,10.0,West,15.0,23.0,N/A,,Clear,260,2013-02-19 18:35:00
12:55 PM,41.4,17.4,38,30.13,10.0,WNW,13.8,21.9,N/A,,Clear,290,2013-02-19 18:55:00
1:15 PM,42.4,20.5,42,30.13,10.0,West,13.8,17.3,N/A,,Clear,280,2013-02-19 19:15:00
1:35 PM,42.6,18.7,38,30.13,10.0,West,15.0,24.2,N/A,,Clear,270,2013-02-19 19:35:00
1:55 PM,43.0,16.5,34,30.13,10.0,West,16.1,21.9,N/A,,Clear,280,2013-02-19 19:55:00
2:15 PM,43.3,18.0,36,30.14,10.0,WSW,13.8,18.4,N/A,,Clear,250,2013-02-19 20:15:00
2:35 PM,44.1,15.8,32,30.14,10.0,West,13.8,20.7,N/A,,Clear,280,2013-02-19 20:35:00
2:55 PM,44.1,14.9,31,30.14,10.0,West,13.8,23.0,N/A,,Clear,280,2013-02-19 20:55:00
3:15 PM,44.1,14.4,30,30.15,10.0,West,15.0,25.3,N/A,,Clear,270,2013-02-19 21:15:00
3:35 PM,44.4,14.7,30,30.15,10.0,West,17.3,24.2,N/A,,Clear,280,2013-02-19 21:35:00
3:55 PM,44.6,14.2,29,30.16,10.0,West,17.3,26.5,N/A,,Clear,280,2013-02-19 21:55:00
4:15 PM,44.1,12.7,28,30.16,10.0,WNW,9.2,26.5,N/A,,Clear,290,2013-02-19 22:15:00
4:35 PM,43.7,12.2,28,30.16,10.0,West,13.8,18.4,N/A,,Clear,270,2013-02-19 22:35:00
4:55 PM,43.0,10.0,26,30.16,10.0,WNW,16.1,24.2,N/A,,Clear,290,2013-02-19 22:55:00
5:15 PM,41.9,10.6,28,30.17,10.0,NW,10.4,18.4,N/A,,Clear,310,2013-02-19 23:15:00
6:55 PM,38.3,9.5,31,30.19,10.0,NW,5.8,-,N/A,,Clear,320,2013-02-20 00:55:00
7:15 PM,36.7,10.6,34,30.19,10.0,NW,4.6,-,N/A,,Clear,310,2013-02-20 01:15:00
7:35 PM,35.8,11.5,37,30.20,10.0,NW,5.8,-,N/A,,Clear,320,2013-02-20 01:35:00
8:15 PM,35.2,11.8,38,30.21,10.0,NW,8.1,-,N/A,,Clear,310,2013-02-20 02:15:00
8:35 PM,34.3,13.5,42,30.23,10.0,NNW,6.9,-,N/A,,Clear,330,2013-02-20 02:35:00
8:55 PM,33.1,14.2,46,30.24,10.0,NW,5.8,-,N/A,,Clear,310,2013-02-20 02:55:00
9:15 PM,32.4,14.4,48,30.26,10.0,NW,5.8,-,N/A,,Clear,320,2013-02-20 03:15:00
9:35 PM,32.0,14.9,49,30.27,10.0,NNW,5.8,-,N/A,,Clear,330,2013-02-20 03:35:00
9:55 PM,31.6,14.7,50,30.27,10.0,NNW,6.9,-,N/A,,Clear,330,2013-02-20 03:55:00
10:15 PM,31.8,14.0,48,30.26,10.0,NNW,9.2,-,N/A,,Clear,330,2013-02-20 04:15:00
10:35 PM,31.1,14.2,50,30.26,10.0,NNW,9.2,-,N/A,,Clear,330,2013-02-20 04:35:00
10:55 PM,30.2,14.7,53,30.26,10.0,NNW,8.1,-,N/A,,Clear,340,2013-02-20 04:55:00
11:15 PM,29.5,14.9,55,30.27,10.0,NNW,4.6,-,N/A,,Clear,340,2013-02-20 05:15:00
11:35 PM,28.9,15.6,58,30.28,10.0,North,4.6,-,N/A,,Clear,350,2013-02-20 05:35:00
11:55 PM,28.2,17.2,63,30.29,10.0,NNW,4.6,-,N/A,,Clear,340,2013-02-20 05:55:00